Regional Weather Roundup
Issued by NWS Kansas City/Pleasant Hill, MO

Home | Current Version | Previous Version | Graphics & Text | Print | Product List | Glossary Off
Versions: 1 2 3 4 5 6 7 8 9 10 11 12 13 14 15 16 17 18 19 20 21 22 23 24 25 26 27 28 29 30 31 32 33 34 35 36 37 38 39 40 41 42 43 44 45 46 47 48 49 50

000
ASUS43 KEAX 051310
RWREAX

WEATHER ROUNDUP FOR EASTERN KANSAS AND NORTHWEST MISSOURI
NATIONAL WEATHER SERVICE KANSAS CITY/PLEASANT HILL MO
700 AM CST THU MAR 05 2015

KSZ040-057-103>105-MOZ028-029-037-043-051400-
...KANSAS CITY METROPOLITAN AREA...

CITY           SKY/WX    TMP DP  RH WIND       PRES   REMARKS
K.C. INTL      CLEAR      7  -1  70 N6        30.54R WCI  -3
K.C. DOWNTOWN  CLEAR     11   1  64 N6        30.56R WCI   1
LEES SUMMIT    CLEAR     11  -2  56 N8        30.53R WCI  -1
OLATHE - IXD   CLEAR      8   1  73 N7        30.54R WCI  -3
OLATHE - OJC   CLEAR     12   0  58 N6        30.52R WCI   3
LAWRENCE       CLEAR      5   1  83 CALM      30.56R

$$

MOZ001>008-011>017-020>025-030>033-038>040-044>046-053-054-051400-
...NORTHERN AND CENTRAL MISSOURI...

CITY           SKY/WX    TMP DP  RH WIND       PRES   REMARKS
ST. JOSEPH     CLEAR      4  -2  76 NW3       30.57R
MOSBY            N/A     10   0  61 NW5       30.55S WCI   2
WARRENSBURG    CLEAR     12   3  67 NW5       30.55R WCI   4
WHITEMAN AFB   CLEAR     12   3  66 N8        30.52R WCI   0
CLINTON        CLEAR     14   9  79 N7        30.53R WCI   4
SEDALIA        CLEAR     13   4  67 NW7       30.52R WCI   3
WARSAW         NOT AVBL
MARSHALL       CLEAR     16   7  67 NW6       30.52R WCI   7
CHILLICOTHE      N/A      8  -2  63 NW6       30.55R WCI  -2
MOBERLY        MOCLDY    14   7  73 N6        30.50  WCI   5
KIRKSVILLE     NOT AVBL

$$

MOZ041-047>049-056>058-063>065-088>090-097-051400-
...EASTERN AND SOUTHERN MISSOURI...

CITY           SKY/WX    TMP DP  RH WIND       PRES   REMARKS
ST. LOUIS INTL MOCLDY    17   3  54 N9        30.48R WCI   6
SPIRIT OF STL  MOCLDY    16   5  62 NE6       30.48R WCI   7
COLUMBIA       CLEAR     13   6  74 NW8       30.48R WCI   2
JEFFERSON CITY CLEAR     17   5  59 NW7       30.51R WCI   8
MEXICO         MOCLDY    16  12  86 NW6       30.48R WCI   7
HANNIBAL       CLEAR     10   1  67 N7        30.51R WCI   0
ROLLA          CLEAR     16   7  67 NW9       30.42R WCI   4
OSAGE BEACH    CLEAR     16   0  48 NW6       30.48R WCI   7
SPRINGFIELD    CLEAR     13   6  74 N8        30.45R WCI   2
BRANSON        PTCLDY    16   9  73 NW6       30.47R WCI   7
NEVADA         CLEAR     14   7  73 CALM      30.55R
JOPLIN         CLEAR     14   8  77 CALM      30.51R
WEST PLAINS    MOCLDY    16   5  62 NW5       30.42R WCI   9

$$

IAZ060-094-KSZ022-034>040-054-083-096-NEZ052-066-093-051400-
...KANSAS...SOUTHEAST NEBRASKA AND IOWA...

CITY           SKY/WX    TMP DP  RH WIND       PRES   REMARKS
TOPEKA         CLEAR     10   1  67 CALM      30.56S
MANHATTAN      CLEAR     10   3  73 CALM      30.54R
EMPORIA        CLEAR      9   2  73 NE6       30.52R WCI  -1
CHANUTE        CLEAR     14   8  77 N6        30.53R WCI   5
WICHITA        PTCLDY    11   6  81 NW3       30.51R
OMAHA          CLEAR      4  -1  80 CALM      30.54R
LINCOLN        CLEAR      1  -4  79 N3        30.52R
FALLS CITY     FAIR       3  -3  76 CALM      30.55R
LAMONI         CLEAR      2  -4  76 NW7       30.51R WCI -11
DES MOINES     PTCLDY     2  -7  66 NW3       30.54R

$$



USA.gov is the U.S. government's official web portal to all federal, state and local government web resources and services.